Home > Weather > Taunton > Past weeks

Flag for United Kingdom Past Weather in Taunton, England, United Kingdom — Yesterday and Last 2 Weeks

Now
58 °F

Fog.


Feels Like: 56 °F
Forecast: 51 / 63 °F
Wind: 9 mph from Southwest

Location: Dunkeswell Aerodrome

Current Time: Jun 26, 2016 at 8:07:28 PM

Latest Report: Jun 26, 2016 at 7:00 PM


Visibility: 2 mi

Pressure: 30.06 "Hg

Humidity: 96%

Dew Point: 56 °F

Location of TauntonLocation

Past Weather in Taunton — Graph

°F

Taunton Temperature Yesterday

Maximum temperature yesterday: 63 °F (at 5:00 PM)
Minimum temperature yesterday: 51 °F (at 6:00 AM)
Average temperature yesterday: 56 °F

High & Low Weather Summary for the Past Weeks

 TemperatureHumidityPressure
High65 °F (Jun 12, 4:00 PM)100% (Jun 12, 3:00 AM)30.28 "Hg (Jun 12, 3:00 AM)
Low49 °F (Jun 18, 4:00 AM)61% (Jun 16, 2:00 PM)29.38 "Hg (Jun 15, 3:00 AM)
Average57 °F89%29.89 "Hg
* Reported Jun 11 7:00 PM — Jun 26 7:00 PM, Taunton, Weather by CustomWeather, © 2016

Note: Actual official high and low records may vary slightly from our data, if they occured in-between our weather recording intervals... More about our weather records

Advertising

Taunton Weather History for the Previous 24 Hours

Scroll right to see more
 ConditionsComfort  
Time TempWeatherWind HumidityBarometerVisibility
7:00 PM
Sun, Jun 26
58 °FFog.9 mph96%30.06 "Hg2 mi
6:00 PM58 °FCool.8 mph93%30.07 "Hg2 mi
5:00 PM58 °FLight rain. Cloudy.9 mph93%30.09 "Hg10 mi
4:00 PM58 °FLight rain. Cloudy.6 mph90%30.11 "Hg25 mi
3:00 PM59 °FLight rain. Cloudy.7 mph86%30.11 "Hg16 mi
2:00 PM59 °FCool.8 mph77%30.11 "Hg28 mi
1:00 PM59 °FCool.8 mph77%30.12 "Hg25 mi
11:00 AM57 °FCool.8 mph86%30.14 "Hg19 mi
10:00 AM56 °FCool.5 mph88%30.14 "Hg14 mi
9:00 AM55 °FCool.6 mph90%30.14 "Hg12 mi
8:00 AM54 °FCool.6 mph95%30.14 "Hg6 mi
7:00 AM53 °FFog.5 mph98%30.14 "Hg3 mi
6:00 AM51 °FFog.5 mph98%30.14 "Hg4 mi
5:00 AM51 °FFog.6 mph97%30.13 "Hg6 mi
4:00 AM51 °FCool.7 mph96%30.13 "Hg10 mi
3:00 AM52 °FCool.7 mph97%30.13 "Hg9 mi
2:00 AM52 °FFog.8 mph97%30.13 "Hg6 mi
1:00 AM53 °FCool.7 mph96%30.14 "Hg11 mi
12:00 AM53 °FCool.7 mph93%30.14 "Hg13 mi
11:00 PM
Sat, Jun 25
53 °FCool.5 mph92%30.14 "Hg15 mi
10:00 PM54 °FCool.9 mph88%30.13 "Hg19 mi
9:00 PM57 °FCool.7 mph81%30.11 "Hg25 mi
8:00 PM58 °FCool.10 mph76%30.10 "Hg25 mi
Weather by CustomWeather, © 2016

See weather overviewHow to use our weather pages